Retour au catalogue

COSMOS 1853

ActifNavigationLEO
NORAD 18114·PAYLOAD·🇷🇺 Russia

Lancé Jun 16, 1987 depuis Plesetsk Cosmodrome

Loading…

Prochains Passages (prochaines 24 heures)

TLE

FraisSource: Space-Track

Époque: Sep 14, 2026, 13:36 UTC

1 18114U 87051B   26257.56679788 -.00000010  00000-0  40647-4 0  9991
2 18114  74.0021 290.3851 0005829  45.3970  28.2982 12.47020547786656

Suivez COSMOS 1853 en temps réel avec AllMySat

Download on the App Store